[[{"header":{"parameterUnit":"m.s-1","parameterCategory":2,"la1":30.2991,"la2":30.254,"lo1":-89.0895,"lo2":-89.0444,"dy":0.0017,"dx":0.0017,"nx":28,"ny":28,"refTime":"2025-05-18T21:00:00:Z","depth":"0","parameterNumber":2,"parameterNumberName":"U-component_of_CURRENTS"},"data":[0,0,0,0,0,0,0,0,0,0,0,0,0,0,0,0,0,0,0,0,0,0,0,0,0,0,0,0,0,0,0,0,0,0,0,0,0,0,0,0,0,0,0,0,0,0,0,0,0,0,0,0,0,0,0,0,0,0,0.256,0.2564,0,0.2797,0.2798,0.2799,0.2841,0.2841,0.2841,0.284,0.2832,0.2832,0.2832,0,0,0,0,0,0,0,0,0,0,0,0,0,0.227,0.2272,0.256,0.2564,0.2569,0.2796,0.2798,0.2799,0.2841,0.2841,0.2841,0.284,0.2832,0.2832,0.2832,0,0,0,0,0,0,0,0,0,0,0,0,0,0.2422,0.2273,0.2559,0.2631,0.2641,0.2796,0.2798,0.28,0.2841,0.2841,0.284,0.284,0.2832,0.2832,0.2832,0.2839,0,0,0.2832,0.2832,0,0,0,0,0,0,0,0,0.2413,0.243,0.2616,0.2627,0.2639,0.2805,0.2694,0.2807,0.2841,0.2745,0.284,0.284,0.2813,0.2814,0.2836,0.2839,0.2838,0.2832,0.2832,0.2832,0.2832,0,0,0,0,0,0,0,0.2402,0.2421,0.2634,0.2621,0.2635,0.2697,0.2714,0.2716,0.2759,0.2754,0.2762,0.2819,0.2814,0.2836,0.2836,0.2838,0.2832,0.2832,0.2832,0.2832,0.2865,0.2866,0,0,0,0,0,0,0.2405,0.241,0.2627,0.2643,0.2544,0.2703,0.2722,0.2737,0.2765,0.2776,0.2819,0.282,0.2837,0.2836,0.2836,0.2862,0.2832,0.2832,0.2832,0.2864,0.2865,0.2866,0,0,0,0,0,0,0.2397,0.242,0.2618,0.255,0.2582,0.2709,0.2725,0.2742,0.2776,0.282,0.2823,0.2838,0.2836,0.2836,0.2828,0.2861,0.2832,0.2832,0.2863,0.2864,0.2865,0.2904,0,0,0,0,0,0,0.2386,0.2414,0.2418,0.2548,0.2586,0.2735,0.2728,0.2748,0.282,0.2823,0.2838,0.2837,0.2836,0.2828,0.2828,0.286,0.2832,0.2862,0.2864,0.2865,0.2901,0.2906,0.291,0,0,0,0,0,0.2374,0.24,0.2415,0.2444,0.2588,0.274,0.2763,0.284,0.2821,0.2858,0.2834,0.2836,0.2839,0.2827,0.2827,0.2861,0.2861,0.2863,0.2865,0.2899,0.2905,0.291,0,0,0,0,0,0,0.2297,0.2413,0.2431,0.2493,0.2617,0.2754,0.281,0.2843,0.2858,0.2844,0.2833,0.2832,0.2849,0.2841,0.2828,0.2876,0.2857,0.2859,0.2883,0.2888,0.2893,0.2928,0.2832,0,0,0,0,0,0.2279,0.2306,0.2454,0.2505,0.2568,0.2676,0.2742,0.2802,0.2852,0.2861,0.2858,0.2852,0.286,0.2858,0.287,0.2879,0.2896,0.2905,0.291,0.2914,0.2943,0.3,0.3013,0.2872,0.2872,0.2872,0,0,0.2268,0.2337,0.2355,0.2489,0.2579,0.268,0.271,0.2832,0.2878,0.2852,0.2868,0.287,0.2866,0.2889,0.2896,0.2882,0.2954,0.2916,0.2919,0.2947,0.3004,0.3018,0.303,0.2874,0.2874,0.2873,0,0,0.2295,0.2321,0.2372,0.2476,0.2636,0.2695,0.2729,0.2859,0.2877,0.291,0.2901,0.2922,0.2914,0.294,0.2943,0.2977,0.2981,0.2974,0.302,0.3075,0.3087,0.3099,0.3102,0.3113,0.297,0.297,0.297,0,0.2284,0.2362,0.2422,0.2527,0.261,0.2694,0.2792,0.2834,0.2928,0.2939,0.2918,0.2951,0.2951,0.2993,0.3009,0.2993,0.3002,0.2996,0.3083,0.3095,0.3106,0.3106,0.3119,0.2972,0.2972,0.2972,0.2972,0,0.237,0.2445,0.2501,0.2616,0.2696,0.2811,0.2895,0.2927,0.293,0.2978,0.3019,0.3024,0.3052,0.3056,0.3039,0.3121,0.3091,0.3086,0.3072,0.3123,0.3119,0.3131,0.2975,0.2974,0.2974,0.2973,0,0,0.233,0.2517,0.2539,0.2611,0.2757,0.2838,0.2883,0.2972,0.2995,0.3049,0.3088,0.3122,0.3144,0.3152,0.315,0.3196,0.3267,0.3175,0.3177,0.3182,0.3353,0.3113,0.3102,0.3275,0.3278,0.328,0.3304,0,0.2393,0.2574,0.263,0.2771,0.288,0.2931,0.2958,0.3028,0.3055,0.3099,0.3137,0.3176,0.3172,0.3186,0.3242,0.3272,0.3308,0.3259,0.33,0.3301,0.3086,0.3112,0.2941,0.2929,0.3316,0.3318,0.332,0,0.246,0.2581,0.2732,0.2856,0.2897,0.2951,0.3003,0.3052,0.3118,0.3139,0.3205,0.3231,0.3318,0.3295,0.3399,0.3364,0.3373,0.3385,0.3386,0.3167,0.3085,0.2949,0.2937,0.2894,0.3339,0.3337,0.3336,0,0.2428,0.263,0.2732,0.2799,0.295,0.2967,0.3006,0.3067,0.3091,0.318,0.3206,0.3311,0.3342,0.3417,0.3426,0.3431,0.3505,0.3513,0.3303,0.3284,0.315,0.3112,0.3109,0.359,0.359,0.359,0.359,0,0.2471,0.2561,0.2727,0.2806,0.288,0.2967,0.3004,0.3055,0.3117,0.3155,0.3234,0.3268,0.3378,0.3412,0.345,0.3383,0.3524,0.3318,0.3284,0.3147,0.3111,0.3073,0.3065,0.3591,0.359,0.359,0.359,0,0.2435,0.255,0.2694,0.2853,0.2881,0.2935,0.2999,0.3024,0.3087,0.3138,0.3166,0.3254,0.3276,0.3321,0.3405,0.3356,0.3233,0.3292,0.3081,0.3018,0.2738,0.2736,0.2543,0.2491,0.3084,0.3078,0.3073,0,0.2432,0.2513,0.2707,0.2763,0.2832,0.2905,0.2927,0.3003,0.3027,0.3113,0.313,0.3159,0.3137,0.312,0.3053,0.3013,0.3007,0.2814,0.279,0.269,0.2669,0.2572,0.2541,0.2636,0.2628,0.2622,0.2617,0,0.2441,0.2508,0.2633,0.2742,0.2797,0.2842,0.2888,0.2896,0.2964,0.2986,0.2987,0.2974,0.2901,0.2743,0.2637,0.2618,0.2636,0.2668,0.2672,0.2388,0.2186,0.2128,0.2632,0.2558,0.2564,0.2569,0.2572,0.2574,0.2425,0.2499,0.2633,0.2708,0.276,0.2746,0.272,0.2742,0.273,0.269,0.2781,0.266,0.2544,0.2341,0.2292,0.2084,0.2162,0.2035,0.2065,0.1994,0.1855,0.2164,0.1969,0.1971,0.1973,0.1975,0.1976,0,0.2412,0.2478,0.2565,0.2634,0.2619,0.2669,0.2653,0.2573,0.2483,0.2459,0.2393,0.219,0.1998,0.191,0.169,0.1559,0.1533,0.1522,0.1457,0.1484,0.1867,0.1761,0.138,0.138,0.138,0.138,0.138,0.138,0.2404,0.2473,0.2507,0.2466,0.248,0.2372,0.2331,0.2223,0.2154,0.1941,0.1784,0.1729,0.1676,0.1468,0.1296,0.126,0.1227,0.1023,0.1142,0.1526,0.1581,0.1634,0.1536,0.1114,0.1113,0.0688,0.0684,0.0682]},{"header":{"parameterUnit":"m.s-1","parameterCategory":2,"la1":30.2991,"la2":30.254,"lo1":-89.0895,"lo2":-89.0444,"dy":0.0017,"dx":0.0017,"nx":28,"ny":28,"refTime":"2025-05-18T21:00:00:Z","depth":"0","parameterNumber":3,"parameterNumberName":"V-component_of_CURRENTS"},"data":[0,0,0,0,0,0,0,0,0,0,0,0,0,0,0,0,0,0,0,0,0,0,0,0,0,0,0,0,0,0,0,0,0,0,0,0,0,0,0,0,0,0,0,0,0,0,0,0,0,0,0,0,0,0,0,0,0,0,0.0157,0.0156,0,0.0171,0.0172,0.0172,0.0177,0.0176,0.0175,0.0175,0.0253,0.0256,0.0258,0,0,0,0,0,0,0,0,0,0,0,0,0,0.0168,0.0168,0.0157,0.0156,0.0156,0.0171,0.0172,0.0173,0.0177,0.0176,0.0175,0.0175,0.0252,0.0255,0.0259,0,0,0,0,0,0,0,0,0,0,0,0,0,0.0176,0.0168,0.0157,0.0156,0.0155,0.0171,0.0172,0.0173,0.0177,0.0176,0.0175,0.0174,0.0251,0.0255,0.0259,0.0301,0,0,0.0271,0.0273,0,0,0,0,0,0,0,0,0.0176,0.0177,0.0156,0.0156,0.0155,0.0166,0.0204,0.0217,0.0177,0.0175,0.0175,0.0174,0.0227,0.0233,0.0245,0.0305,0.0308,0.0271,0.0274,0.0276,0.0277,0,0,0,0,0,0,0,0.0175,0.0176,0.0168,0.0156,0.0155,0.0166,0.0167,0.0207,0.0211,0.0175,0.0174,0.0167,0.0228,0.0241,0.0247,0.0309,0.0271,0.0275,0.0277,0.0279,0.0451,0.0453,0,0,0,0,0,0,0.0161,0.0175,0.0167,0.0168,0.0157,0.0166,0.0167,0.0168,0.0209,0.0212,0.0167,0.0167,0.0235,0.0242,0.0249,0.0347,0.0276,0.0279,0.0282,0.0448,0.0451,0.0453,0,0,0,0,0,0,0.0162,0.0161,0.0167,0.0167,0.0168,0.0166,0.0168,0.0169,0.018,0.0202,0.0207,0.0177,0.0234,0.0244,0.031,0.0349,0.0281,0.0285,0.0446,0.0449,0.0452,0.0514,0,0,0,0,0,0,0.0162,0.0161,0.0166,0.0166,0.0167,0.0182,0.0168,0.017,0.0175,0.0174,0.0212,0.0218,0.0234,0.0304,0.0313,0.0353,0.0288,0.0443,0.0447,0.0451,0.051,0.0519,0.0528,0,0,0,0,0,0.0163,0.0172,0.0166,0.0165,0.0171,0.0182,0.0185,0.0184,0.0176,0.0191,0.0228,0.0217,0.0336,0.0309,0.032,0.0361,0.0441,0.0446,0.0451,0.0505,0.0517,0.0528,0,0,0,0,0,0,0.018,0.0172,0.0166,0.0173,0.0177,0.0181,0.0189,0.0188,0.0227,0.0229,0.0252,0.0263,0.0335,0.0342,0.0311,0.0423,0.0384,0.0392,0.0422,0.0434,0.0442,0.0455,0.0291,0,0,0,0,0,0.0184,0.0188,0.0184,0.0189,0.0189,0.0191,0.0195,0.0196,0.0221,0.0235,0.0265,0.0306,0.0365,0.0392,0.0436,0.05,0.0479,0.0531,0.054,0.0548,0.0567,0.0575,0.0586,0.047,0.047,0.0469,0,0,0.0188,0.0186,0.0186,0.0192,0.0194,0.0219,0.0193,0.0202,0.0243,0.0241,0.0313,0.0341,0.039,0.0467,0.0498,0.0476,0.0565,0.0554,0.056,0.0575,0.0581,0.0592,0.0602,0.0473,0.0472,0.0472,0,0,0.02,0.0199,0.0206,0.0217,0.0218,0.0234,0.0237,0.025,0.0276,0.0341,0.0361,0.0418,0.0487,0.0541,0.0577,0.0664,0.0615,0.0665,0.0722,0.073,0.0739,0.0747,0.0704,0.0708,0.0667,0.0667,0.0667,0,0.0207,0.0222,0.0212,0.0229,0.0254,0.0245,0.0282,0.0311,0.0351,0.04,0.0371,0.0508,0.0533,0.0656,0.0681,0.0687,0.0656,0.0674,0.074,0.0748,0.0755,0.0709,0.0712,0.067,0.067,0.067,0.0669,0,0.0231,0.0247,0.0254,0.0285,0.0316,0.034,0.0378,0.0424,0.045,0.0486,0.0592,0.0628,0.071,0.0722,0.073,0.0812,0.0759,0.0748,0.0706,0.077,0.0717,0.0719,0.0675,0.0674,0.0673,0.0672,0,0,0.0245,0.0268,0.0274,0.0311,0.0352,0.039,0.047,0.056,0.0639,0.0665,0.0768,0.0849,0.0848,0.0888,0.0896,0.09,0.0906,0.0841,0.084,0.0787,0.0876,0.0855,0.0854,0.0893,0.0895,0.0896,0.0806,0,0.0275,0.0319,0.0337,0.0421,0.0458,0.0506,0.0596,0.0678,0.0742,0.0835,0.0874,0.0961,0.0918,0.0953,0.0956,0.0939,0.092,0.0929,0.0833,0.083,0.0795,0.0861,0.087,0.0794,0.0808,0.0808,0.0809,0,0.0305,0.0337,0.0404,0.0514,0.0541,0.0602,0.0767,0.0844,0.0965,0.1012,0.1082,0.1096,0.1149,0.1076,0.1055,0.1054,0.0971,0.0924,0.0919,0.0887,0.0816,0.0741,0.0796,0.08,0.0811,0.0811,0.0811,0,0.0336,0.0406,0.047,0.0498,0.0606,0.0682,0.0766,0.09,0.1003,0.1114,0.1174,0.1225,0.1247,0.1182,0.1088,0.1064,0.1023,0.0979,0.0875,0.0869,0.0857,0.0849,0.0904,0.0941,0.0941,0.0941,0.0942,0,0.0375,0.0435,0.0488,0.0524,0.0662,0.0722,0.0887,0.098,0.1111,0.1242,0.1255,0.1334,0.1269,0.124,0.1128,0.102,0.1051,0.0902,0.0867,0.0876,0.0871,0.0857,0.084,0.0938,0.0939,0.0939,0.094,0,0.0405,0.0423,0.0512,0.0618,0.067,0.0772,0.0958,0.108,0.1173,0.1332,0.1363,0.1418,0.1375,0.1286,0.118,0.1076,0.0962,0.0911,0.0904,0.0871,0.0781,0.0767,0.076,0.0769,0.0787,0.0786,0.0785,0,0.0424,0.0456,0.0574,0.0654,0.0709,0.0856,0.0977,0.1108,0.1232,0.1386,0.1464,0.1465,0.1486,0.1323,0.1152,0.0966,0.0934,0.0842,0.0821,0.0805,0.0762,0.0757,0.0766,0.08,0.08,0.08,0.0799,0,0.0475,0.0501,0.0582,0.073,0.0853,0.0997,0.116,0.1255,0.1409,0.1513,0.1621,0.1634,0.1493,0.134,0.1102,0.0971,0.0871,0.0827,0.0835,0.0814,0.0791,0.0772,0.0791,0.0796,0.0797,0.0797,0.0797,0.0797,0.0526,0.0593,0.0691,0.0847,0.0978,0.1123,0.1241,0.1379,0.1537,0.1673,0.1691,0.1697,0.1512,0.1197,0.1055,0.0833,0.0822,0.0755,0.074,0.0738,0.077,0.0767,0.0727,0.0727,0.0727,0.0727,0.0727,0,0.0602,0.068,0.0818,0.0985,0.1123,0.1178,0.1367,0.1455,0.1598,0.1688,0.1747,0.1642,0.1428,0.1208,0.091,0.0785,0.0749,0.0726,0.0743,0.0756,0.0773,0.0802,0.0751,0.0751,0.0751,0.0751,0.0751,0.0751,0.0652,0.0779,0.085,0.1076,0.1191,0.1349,0.1441,0.1534,0.1617,0.168,0.1668,0.1652,0.1535,0.1088,0.0858,0.0793,0.077,0.0709,0.0713,0.0742,0.0744,0.0747,0.0775,0.072,0.0719,0.0728,0.0728,0.0727]}],[{"header":{"parameterUnit":"m.s-1","parameterCategory":2,"la1":30.2991,"la2":30.254,"lo1":-89.0895,"lo2":-89.0444,"dy":0.0017,"dx":0.0017,"nx":28,"ny":28,"refTime":"2025-05-18T21:00:00:Z","depth":"2","parameterNumber":2,"parameterNumberName":"U-component_of_CURRENTS"},"data":[0,0,0,0,0,0,0,0,0,0,0,0,0,0,0,0,0,0,0,0,0,0,0,0,0,0,0,0,0,0,0,0,0,0,0,0,0,0,0,0,0,0,0,0,0,0,0,0,0,0,0,0,0,0,0,0,0,0,0.2218,0.2221,0,0.2448,0.245,0.2453,0.2501,0.2499,0.2498,0.2496,0.2587,0.259,0.2594,0,0,0,0,0,0,0,0,0,0,0,0,0,0.2023,0.2025,0.2218,0.2221,0.2224,0.2447,0.2451,0.2454,0.2501,0.2499,0.2497,0.2495,0.2585,0.259,0.2595,0,0,0,0,0,0,0,0,0,0,0,0,0,0.2165,0.2026,0.2218,0.2275,0.2282,0.2447,0.2451,0.2454,0.2502,0.2499,0.2497,0.2494,0.2584,0.259,0.2595,0.2683,0,0,0.2614,0.2616,0,0,0,0,0,0,0,0,0.2157,0.2172,0.2264,0.2271,0.228,0.2443,0.2415,0.2524,0.2502,0.2418,0.2496,0.2493,0.2528,0.2538,0.2589,0.2687,0.2691,0.2614,0.2618,0.262,0.2622,0,0,0,0,0,0,0,0.2146,0.2164,0.2309,0.2267,0.2277,0.2359,0.2374,0.2438,0.2481,0.2425,0.2429,0.2456,0.2531,0.2583,0.2591,0.2692,0.2614,0.2619,0.2623,0.2625,0.2802,0.2803,0,0,0,0,0,0,0.2112,0.2154,0.2302,0.2316,0.2211,0.2363,0.2381,0.2393,0.2484,0.2497,0.2458,0.2458,0.2574,0.2584,0.2594,0.2669,0.262,0.2626,0.2629,0.28,0.2802,0.2803,0,0,0,0,0,0,0.2106,0.2122,0.2292,0.2241,0.2268,0.2368,0.2383,0.2399,0.2461,0.2511,0.252,0.2503,0.2572,0.2585,0.264,0.2673,0.2629,0.2634,0.2799,0.2801,0.2802,0.2841,0,0,0,0,0,0,0.2099,0.2118,0.2116,0.2238,0.227,0.2385,0.2386,0.2405,0.2481,0.2483,0.2553,0.2558,0.2571,0.2631,0.2646,0.2681,0.2639,0.2798,0.28,0.2802,0.2838,0.2843,0.2848,0,0,0,0,0,0.2091,0.21,0.2114,0.2132,0.2262,0.2386,0.2411,0.2474,0.2485,0.2519,0.2553,0.2557,0.2654,0.2638,0.2655,0.2692,0.2797,0.2799,0.2802,0.2836,0.2842,0.2848,0,0,0,0,0,0,0.2032,0.211,0.2126,0.2161,0.2261,0.2394,0.2445,0.2491,0.2556,0.2551,0.2586,0.2596,0.2656,0.267,0.2651,0.2745,0.2722,0.2728,0.2742,0.2748,0.2753,0.2776,0.2644,0,0,0,0,0,0.2013,0.2031,0.2137,0.2174,0.2225,0.2341,0.2401,0.2446,0.2524,0.2553,0.2604,0.2644,0.2686,0.2709,0.2752,0.2818,0.2827,0.2846,0.2851,0.2856,0.2884,0.2935,0.2948,0.2811,0.2811,0.2811,0,0,0.2007,0.2051,0.2064,0.2161,0.2253,0.2348,0.2372,0.2471,0.2539,0.2551,0.2652,0.2676,0.2708,0.2769,0.2796,0.2781,0.2889,0.2859,0.2862,0.2889,0.2939,0.2953,0.2965,0.2813,0.2812,0.2812,0,0,0.2034,0.2047,0.2089,0.217,0.2288,0.2358,0.2388,0.2524,0.2567,0.2661,0.2675,0.2723,0.2804,0.2835,0.2856,0.2923,0.2918,0.2922,0.297,0.3019,0.3031,0.3042,0.3025,0.3035,0.292,0.292,0.292,0,0.2027,0.2086,0.213,0.2214,0.2284,0.2365,0.2457,0.2528,0.2656,0.2695,0.2684,0.2817,0.2843,0.2919,0.2932,0.2939,0.2939,0.2943,0.3027,0.3038,0.3049,0.303,0.304,0.2922,0.2922,0.2921,0.2921,0,0.2096,0.2158,0.2207,0.2316,0.2393,0.2486,0.2584,0.2653,0.2704,0.2767,0.2855,0.2896,0.2969,0.2978,0.2981,0.3067,0.303,0.303,0.3012,0.3065,0.304,0.305,0.2925,0.2924,0.2923,0.2923,0,0,0.2066,0.2218,0.224,0.2318,0.2448,0.2534,0.2627,0.2743,0.2805,0.289,0.2975,0.3049,0.3065,0.3092,0.31,0.3142,0.3198,0.3119,0.3121,0.3104,0.326,0.2998,0.2983,0.3211,0.3214,0.3216,0.3195,0,0.2125,0.227,0.2325,0.2485,0.2585,0.2661,0.2744,0.2839,0.2899,0.2989,0.3033,0.3107,0.3107,0.3131,0.3183,0.3211,0.3233,0.3201,0.3212,0.3212,0.2975,0.299,0.2786,0.2731,0.3205,0.3206,0.3208,0,0.2179,0.2275,0.2417,0.258,0.2629,0.2721,0.2851,0.2928,0.3032,0.3069,0.3143,0.3173,0.3263,0.3239,0.3327,0.3304,0.3294,0.3296,0.3295,0.3055,0.2969,0.2765,0.2731,0.3223,0.3222,0.3221,0.322,0,0.2142,0.2343,0.2446,0.2508,0.269,0.2764,0.2854,0.2961,0.3008,0.3119,0.3144,0.3256,0.3289,0.3348,0.3332,0.3352,0.338,0.3405,0.3153,0.3133,0.2964,0.2922,0.3458,0.3458,0.3458,0.3458,0.3458,0,0.217,0.2266,0.2453,0.2512,0.2663,0.2774,0.288,0.2977,0.3058,0.3096,0.3182,0.32,0.332,0.333,0.3349,0.3242,0.339,0.3162,0.3119,0.296,0.2919,0.3364,0.3354,0.3458,0.3458,0.3458,0.3458,0,0.2127,0.2229,0.2381,0.2581,0.265,0.2761,0.2902,0.295,0.3029,0.3077,0.3105,0.3178,0.3162,0.3198,0.3251,0.32,0.3166,0.3079,0.2834,0.276,0.2893,0.2886,0.2852,0.2842,0.2834,0.2828,0.2823,0,0.2116,0.2185,0.2409,0.2505,0.2611,0.2759,0.2825,0.2935,0.2957,0.3028,0.3032,0.3032,0.2959,0.289,0.2821,0.2747,0.2904,0.2503,0.2507,0.2874,0.2837,0.2841,0.2844,0.2302,0.2293,0.2285,0.2279,0,0.2137,0.2206,0.2346,0.2489,0.2612,0.2704,0.2808,0.2804,0.2876,0.2859,0.2802,0.2747,0.2644,0.2433,0.2305,0.2265,0.2508,0.2335,0.2828,0.2446,0.2342,0.231,0.2334,0.2212,0.2218,0.2223,0.2227,0.223,0.2158,0.2256,0.2393,0.2508,0.2615,0.2615,0.2607,0.2614,0.2559,0.2463,0.2522,0.2328,0.2297,0.1947,0.1842,0.1778,0.1969,0.1941,0.1973,0.201,0.1909,0.1793,0.1539,0.1541,0.1544,0.1546,0.1548,0,0.2197,0.2266,0.2383,0.2495,0.2495,0.2568,0.255,0.243,0.2244,0.2186,0.2049,0.1759,0.1551,0.1537,0.1315,0.126,0.1354,0.1226,0.1377,0.144,0.1498,0.1381,0.0866,0.0864,0.0862,0.0861,0,0,0.2221,0.2311,0.2323,0.2312,0.2356,0.2258,0.219,0.2007,0.1892,0.1626,0.1482,0.1496,0.1493,0.1183,0.1106,0.0957,0.1217,0.0914,0.1459,0.1703,0.176,0.1893,0.1777,0,0,0,0,0]},{"header":{"parameterUnit":"m.s-1","parameterCategory":2,"la1":30.2991,"la2":30.254,"lo1":-89.0895,"lo2":-89.0444,"dy":0.0017,"dx":0.0017,"nx":28,"ny":28,"refTime":"2025-05-18T21:00:00:Z","depth":"2","parameterNumber":3,"parameterNumberName":"V-component_of_CURRENTS"},"data":[0,0,0,0,0,0,0,0,0,0,0,0,0,0,0,0,0,0,0,0,0,0,0,0,0,0,0,0,0,0,0,0,0,0,0,0,0,0,0,0,0,0,0,0,0,0,0,0,0,0,0,0,0,0,0,0,0,0,-0.0101,-0.0103,0,-0.0195,-0.0195,-0.0194,-0.0181,-0.0181,-0.0181,-0.0181,-0.0014,-0.001,-0.0005,0,0,0,0,0,0,0,0,0,0,0,0,0,0.0028,0.0027,-0.0101,-0.0104,-0.0107,-0.0195,-0.0195,-0.0194,-0.0181,-0.0181,-0.0181,-0.0181,-0.0016,-0.001,-0.0005,0,0,0,0,0,0,0,0,0,0,0,0,0,-0.0025,0.0027,-0.01,-0.0125,-0.0129,-0.0195,-0.0195,-0.0194,-0.0181,-0.0181,-0.0181,-0.0181,-0.0018,-0.0011,-0.0004,0.0044,0,0,0.0017,0.002,0,0,0,0,0,0,0,0,-0.0022,-0.0027,-0.0118,-0.0123,-0.0129,-0.0193,-0.009,-0.0108,-0.0181,-0.0141,-0.0181,-0.0182,-0.0062,-0.0052,-0.0045,0.0052,0.0059,0.0018,0.0022,0.0025,0.0027,0,0,0,0,0,0,0,-0.0018,-0.0024,-0.0119,-0.0122,-0.0128,-0.0154,-0.0159,-0.0093,-0.0079,-0.0144,-0.0148,-0.0189,-0.006,-0.0052,-0.0041,0.0061,0.0018,0.0024,0.0028,0.0031,0.0273,0.0276,0,0,0,0,0,0,-0.0041,-0.002,-0.0116,-0.0124,-0.0096,-0.0157,-0.0162,-0.0157,-0.0086,-0.0083,-0.0189,-0.0189,-0.0064,-0.0049,-0.0035,0.0106,0.0025,0.0031,0.0035,0.0271,0.0274,0.0276,0,0,0,0,0,0,-0.0037,-0.0047,-0.0113,-0.0092,-0.0105,-0.0161,-0.0154,-0.0159,-0.0145,-0.0126,-0.0114,-0.0173,-0.0063,-0.0044,0.0068,0.011,0.0034,0.0041,0.0268,0.0272,0.0275,0.0337,0,0,0,0,0,0,-0.0032,-0.0043,-0.0038,-0.0092,-0.0107,-0.0146,-0.0156,-0.0161,-0.018,-0.0179,-0.0108,-0.0094,-0.0062,0.0058,0.0075,0.0118,0.0046,0.0265,0.027,0.0274,0.0332,0.0342,0.0351,0,0,0,0,0,-0.0026,-0.0024,-0.0036,-0.005,-0.0099,-0.0148,-0.0155,-0.0185,-0.0179,-0.017,-0.0092,-0.0096,0.0096,0.0067,0.0086,0.0131,0.0263,0.0269,0.0274,0.0328,0.034,0.035,0,0,0,0,0,0,0.0026,-0.0027,-0.0039,-0.0055,-0.01,-0.0153,-0.0165,-0.0177,-0.0114,-0.0101,-0.0047,-0.0025,0.0083,0.0103,0.0068,0.0212,0.0172,0.0181,0.0206,0.0218,0.0227,0.0234,0.0052,0,0,0,0,0,0.0037,0.0035,-0.003,-0.0043,-0.0063,-0.0104,-0.0127,-0.0151,-0.0128,-0.0104,-0.0042,0.0031,0.0117,0.0164,0.023,0.0321,0.0298,0.0356,0.0366,0.0373,0.0392,0.0397,0.0407,0.0293,0.0293,0.0293,0,0,0.0041,0.0014,0.0008,-0.0033,-0.0063,-0.0071,-0.0111,-0.015,-0.0113,-0.0089,0.0025,0.0073,0.015,0.0254,0.0301,0.0278,0.0389,0.038,0.0386,0.0401,0.0403,0.0414,0.0423,0.0297,0.0296,0.0296,0,0,0.0047,0.004,0.0038,0.0003,-0.0062,-0.0061,-0.0068,-0.0096,-0.0056,0.0027,0.0069,0.0152,0.0268,0.0336,0.0386,0.049,0.044,0.0493,0.0552,0.0556,0.0565,0.0572,0.0527,0.053,0.0496,0.0496,0.0496,0,0.0055,0.0047,0.0025,0.0002,-0.001,-0.0044,-0.0039,-0.0006,0.002,0.0094,0.0073,0.0266,0.0315,0.0466,0.0496,0.0513,0.048,0.0502,0.0566,0.0573,0.058,0.0532,0.0534,0.05,0.0499,0.0499,0.0499,0,0.0048,0.0037,0.0028,0.0027,0.0034,0.0009,0.0038,0.0103,0.0154,0.0188,0.0335,0.0394,0.0506,0.0524,0.0549,0.0638,0.0586,0.0574,0.053,0.0595,0.054,0.0541,0.0505,0.0504,0.0502,0.0502,0,0,0.0081,0.0037,0.0033,0.0053,0.0039,0.006,0.0163,0.0261,0.0368,0.0401,0.0534,0.0648,0.0649,0.0705,0.0723,0.0725,0.0729,0.0667,0.0666,0.0609,0.0691,0.0652,0.0649,0.0714,0.0715,0.0717,0.0622,0,0.0085,0.0065,0.0067,0.0112,0.0118,0.0165,0.0289,0.0382,0.0474,0.0599,0.0655,0.0767,0.0727,0.0772,0.0774,0.0763,0.0741,0.0753,0.065,0.0647,0.0594,0.0654,0.0656,0.0573,0.0623,0.0623,0.0623,0,0.0088,0.0079,0.0099,0.0196,0.0218,0.028,0.0497,0.0586,0.0746,0.0809,0.0891,0.0912,0.0973,0.0894,0.0875,0.0877,0.0791,0.0741,0.0736,0.0686,0.0613,0.0525,0.0573,0.0625,0.0625,0.0625,0.0624,0,0.0135,0.0138,0.0181,0.0178,0.0266,0.0376,0.0487,0.0663,0.0788,0.0924,0.0985,0.1048,0.1073,0.1002,0.0903,0.0884,0.0829,0.0791,0.0665,0.0658,0.0639,0.0629,0.0745,0.0745,0.0746,0.0746,0.0746,0,0.0152,0.0187,0.0208,0.0216,0.0378,0.0433,0.0645,0.0767,0.0918,0.1058,0.1078,0.115,0.1094,0.1057,0.0941,0.0816,0.0854,0.069,0.0652,0.0657,0.065,0.0686,0.0681,0.0742,0.0743,0.0744,0.0744,0,0.0191,0.0176,0.0229,0.0319,0.0387,0.051,0.0732,0.0875,0.0985,0.1149,0.1182,0.1234,0.117,0.1079,0.0965,0.0867,0.0751,0.068,0.0668,0.0631,0.0554,0.0553,0.0541,0.0539,0.0537,0.0536,0.0535,0,0.0207,0.0215,0.0299,0.0388,0.0441,0.0617,0.0765,0.0914,0.1039,0.1194,0.1265,0.1251,0.1241,0.1059,0.0898,0.0699,0.0684,0.0572,0.0558,0.058,0.0543,0.0544,0.0545,0.053,0.0529,0.0528,0.0527,0,0.0245,0.0259,0.0313,0.0464,0.0613,0.0769,0.0961,0.1052,0.1213,0.1294,0.1374,0.1364,0.1206,0.103,0.0787,0.0658,0.0617,0.0547,0.0604,0.0589,0.0565,0.053,0.0532,0.052,0.0521,0.0521,0.0522,0.0522,0.0301,0.0346,0.042,0.0591,0.0744,0.0908,0.1038,0.1165,0.1304,0.1404,0.1401,0.1348,0.1208,0.0861,0.0681,0.0505,0.0518,0.0451,0.0456,0.0461,0.0485,0.0462,0.0398,0.0398,0.0398,0.0398,0.0398,0,0.0374,0.0436,0.0572,0.0747,0.0898,0.0977,0.1171,0.1241,0.1337,0.1382,0.1389,0.1185,0.1003,0.0822,0.0555,0.0405,0.0406,0.0348,0.0392,0.0401,0.0408,0.0432,0.0328,0.0327,0.0327,0.0326,0,0,0.0425,0.0542,0.0598,0.0846,0.0978,0.1151,0.1242,0.1295,0.1336,0.131,0.1263,0.122,0.1034,0.0818,0.0628,0.0478,0.047,0.044,0.0515,0.0599,0.0608,0.0486,0.0534,0,0,0,0,0]}],[{"header":{"parameterUnit":"m.s-1","parameterCategory":2,"la1":30.2991,"la2":30.254,"lo1":-89.0895,"lo2":-89.0444,"dy":0.0017,"dx":0.0017,"nx":28,"ny":28,"refTime":"2025-05-18T21:00:00:Z","depth":"4","parameterNumber":2,"parameterNumberName":"U-component_of_CURRENTS"},"data":[0,0,0,0,0,0,0,0,0,0,0,0,0,0,0,0,0,0,0,0,0,0,0,0,0,0,0,0,0,0,0,0,0,0,0,0,0,0,0,0,0,0,0,0,0,0,0,0,0,0,0,0,0,0,0,0,0,0,0.0509,0.0502,0,0.0151,0.015,0.015,0.0196,0.0198,0.0201,0.0203,0.0433,0.0436,0.044,0,0,0,0,0,0,0,0,0,0,0,0,0,0.1021,0.1016,0.051,0.0502,0.0494,0.0152,0.015,0.0149,0.0196,0.0198,0.0201,0.0204,0.0431,0.0436,0.0441,0,0,0,0,0,0,0,0,0,0,0,0,0,0.0782,0.1014,0.0511,0.0447,0.0435,0.0152,0.015,0.0149,0.0195,0.0198,0.0202,0.0205,0.043,0.0436,0.0441,0.041,0,0,0.046,0.0462,0,0,0,0,0,0,0,0,0.0796,0.0769,0.0464,0.045,0.0436,0.0187,0.0412,0.0252,0.0194,0.0328,0.0203,0.0207,0.0377,0.0387,0.036,0.0421,0.0431,0.046,0.0464,0.0467,0.0468,0,0,0,0,0,0,0,0.0813,0.0782,0.0408,0.0454,0.0437,0.0359,0.0336,0.0382,0.0379,0.0316,0.0309,0.0205,0.038,0.0354,0.0367,0.0434,0.046,0.0465,0.0469,0.0472,0.0763,0.0767,0,0,0,0,0,0,0.0784,0.0799,0.0418,0.0393,0.0584,0.0345,0.0321,0.0296,0.0365,0.0362,0.0202,0.0208,0.0342,0.036,0.0376,0.0605,0.0466,0.0472,0.0476,0.0759,0.0764,0.0769,0,0,0,0,0,0,0.0799,0.0758,0.0432,0.0552,0.0501,0.0331,0.0303,0.0286,0.0325,0.0265,0.0284,0.0261,0.0345,0.0367,0.0507,0.0605,0.0475,0.048,0.0754,0.0761,0.0767,0.0897,0,0,0,0,0,0,0.0817,0.0768,0.0783,0.0553,0.0491,0.0299,0.0295,0.0275,0.0231,0.024,0.032,0.034,0.035,0.0499,0.0513,0.0611,0.0485,0.0749,0.0757,0.0765,0.0888,0.0907,0.0924,0,0,0,0,0,0.0838,0.0814,0.0789,0.0741,0.0508,0.0293,0.0263,0.0176,0.0232,0.0239,0.034,0.0341,0.0559,0.0507,0.0523,0.0625,0.0745,0.0755,0.0764,0.0879,0.0903,0.0923,0,0,0,0,0,0,0.1019,0.0805,0.0775,0.0688,0.0518,0.0288,0.023,0.0216,0.0288,0.0342,0.0387,0.0413,0.0572,0.0579,0.052,0.0733,0.0655,0.0668,0.0738,0.076,0.0778,0.0771,0.049,0,0,0,0,0,0.106,0.102,0.0777,0.071,0.0616,0.0461,0.038,0.0329,0.0299,0.0333,0.0419,0.0517,0.0602,0.0671,0.0732,0.0845,0.0812,0.0925,0.0943,0.0958,0.0966,0.1006,0.1027,0.08,0.08,0.0799,0,0,0.1091,0.097,0.0941,0.0748,0.0608,0.0494,0.0435,0.0307,0.0329,0.0354,0.0514,0.0586,0.0647,0.0778,0.0851,0.0813,0.1002,0.097,0.0982,0.0982,0.1018,0.1039,0.1059,0.0806,0.0805,0.0804,0,0,0.1073,0.1035,0.0969,0.0835,0.0616,0.0543,0.0531,0.0391,0.0457,0.0558,0.0608,0.0739,0.0883,0.0932,0.0975,0.113,0.1092,0.1178,0.1274,0.1314,0.1332,0.1347,0.1303,0.1314,0.1191,0.1192,0.1192,0,0.1123,0.1006,0.0909,0.0777,0.0678,0.059,0.0499,0.0521,0.0504,0.0597,0.0648,0.089,0.0948,0.1085,0.1157,0.1171,0.1164,0.1183,0.1334,0.1349,0.1363,0.1314,0.1324,0.1199,0.1198,0.1197,0.1197,0,0.1017,0.0927,0.085,0.0721,0.0656,0.0532,0.0495,0.0589,0.0709,0.0741,0.096,0.1049,0.1192,0.1241,0.1263,0.1405,0.1357,0.1344,0.1268,0.1393,0.1334,0.1342,0.121,0.1207,0.1205,0.1203,0,0,0.1085,0.0837,0.0812,0.0744,0.0616,0.0542,0.0652,0.069,0.0796,0.094,0.1095,0.1286,0.1362,0.1415,0.1461,0.1513,0.1604,0.15,0.1498,0.1436,0.1653,0.1499,0.149,0.1637,0.164,0.1642,0.156,0,0.1015,0.0784,0.0746,0.0636,0.0496,0.0546,0.0654,0.0743,0.088,0.1037,0.1197,0.1357,0.1417,0.1515,0.1589,0.1591,0.1639,0.1624,0.1559,0.1555,0.1388,0.1501,0.1652,0.1565,0.1567,0.1568,0.1569,0,0.0918,0.0765,0.0606,0.0566,0.0538,0.0575,0.0746,0.0839,0.1043,0.1167,0.1356,0.1447,0.1602,0.1624,0.1717,0.1716,0.1723,0.1708,0.1704,0.152,0.1418,0.1426,0.1582,0.1581,0.158,0.1579,0.1578,0,0.0929,0.0721,0.0625,0.0561,0.0496,0.0615,0.0731,0.091,0.1037,0.1269,0.1336,0.1534,0.1637,0.1704,0.1727,0.1748,0.1754,0.1754,0.1606,0.159,0.1688,0.1672,0.1824,0.1824,0.1825,0.1825,0.1825,0,0.0849,0.0772,0.0628,0.0547,0.0581,0.063,0.0802,0.0944,0.1148,0.1264,0.1424,0.1503,0.1678,0.1701,0.1724,0.1669,0.1759,0.1631,0.1583,0.174,0.1732,0.169,0.1675,0.1822,0.1822,0.1823,0.1823,0,0.0837,0.0718,0.0577,0.0518,0.0547,0.0614,0.0835,0.0958,0.1134,0.1277,0.1362,0.1517,0.1564,0.1613,0.1675,0.1628,0.1597,0.1555,0.1662,0.1618,0.1399,0.1393,0.1386,0.138,0.1376,0.1372,0.1368,0,0.0805,0.069,0.0543,0.0521,0.0518,0.0628,0.0737,0.0966,0.1082,0.1255,0.1306,0.1405,0.148,0.1405,0.1491,0.1464,0.147,0.1408,0.1488,0.1413,0.1367,0.1368,0.1369,0.1361,0.136,0.1358,0.1357,0,0.0711,0.0657,0.0533,0.0461,0.0529,0.0544,0.0727,0.081,0.106,0.1164,0.125,0.1282,0.1293,0.1353,0.1325,0.132,0.1426,0.1359,0.1371,0.1446,0.1382,0.1342,0.1347,0.1341,0.1343,0.1345,0.1346,0,0.0673,0.0577,0.0441,0.0421,0.0443,0.047,0.0574,0.0722,0.0859,0.1088,0.1109,0.1181,0.1308,0.1271,0.1246,0.1221,0.1231,0.1192,0.1213,0.1232,0.1221,0.112,0.0969,0,0,0,0,0,0.057,0.0487,0.045,0.0376,0.0401,0.0424,0.055,0.0669,0.0886,0.093,0.1041,0.1065,0.1078,0.1121,0.1069,0.1136,0.1198,0.1061,0.1156,0.125,0.1269,0.1271,0,0,0,0,0,0,0.0523,0.0408,0.04,0.0349,0.0341,0.0361,0.0435,0.0563,0.062,0.0832,0.0865,0.0969,0.1011,0.1104,0.1043,0.1047,0.1073,0.1124,0.1119,0.1239,0.1256,0.1271,0.1281,0,0,0,0,0]},{"header":{"parameterUnit":"m.s-1","parameterCategory":2,"la1":30.2991,"la2":30.254,"lo1":-89.0895,"lo2":-89.0444,"dy":0.0017,"dx":0.0017,"nx":28,"ny":28,"refTime":"2025-05-18T21:00:00:Z","depth":"4","parameterNumber":3,"parameterNumberName":"V-component_of_CURRENTS"},"data":[0,0,0,0,0,0,0,0,0,0,0,0,0,0,0,0,0,0,0,0,0,0,0,0,0,0,0,0,0,0,0,0,0,0,0,0,0,0,0,0,0,0,0,0,0,0,0,0,0,0,0,0,0,0,0,0,0,0,0.0189,0.0191,0,0.0456,0.0459,0.0463,0.0649,0.0649,0.065,0.0651,0.0628,0.0626,0.0625,0,0,0,0,0,0,0,0,0,0,0,0,0,0.0048,0.0049,0.0189,0.0192,0.0194,0.0455,0.046,0.0464,0.0648,0.0649,0.065,0.0651,0.0628,0.0626,0.0625,0,0,0,0,0,0,0,0,0,0,0,0,0,0.0197,0.0049,0.0188,0.0313,0.0327,0.0454,0.046,0.0465,0.0648,0.0649,0.0651,0.0652,0.0629,0.0627,0.0625,0.0586,0,0,0.0618,0.0617,0,0,0,0,0,0,0,0,0.0188,0.0202,0.0292,0.0305,0.032,0.0515,0.0402,0.0489,0.0648,0.0533,0.0651,0.0653,0.0558,0.0562,0.0622,0.0585,0.0584,0.0618,0.0617,0.0616,0.0615,0,0,0,0,0,0,0,0.0177,0.0193,0.0301,0.0295,0.0312,0.0427,0.0449,0.0422,0.0534,0.0543,0.0555,0.0575,0.0565,0.0624,0.0622,0.0583,0.0618,0.0616,0.0615,0.0614,0.0483,0.048,0,0,0,0,0,0,0.0119,0.0182,0.0292,0.0308,0.0249,0.0427,0.0452,0.0456,0.0541,0.0556,0.0573,0.0582,0.0627,0.0624,0.0621,0.0599,0.0616,0.0614,0.0612,0.0485,0.0482,0.048,0,0,0,0,0,0,0.0115,0.0126,0.0281,0.0248,0.0275,0.0426,0.0431,0.046,0.0554,0.0567,0.0578,0.064,0.0628,0.0624,0.0632,0.0598,0.0613,0.0611,0.0487,0.0484,0.0481,0.054,0,0,0,0,0,0,0.0109,0.0122,0.0121,0.0243,0.0274,0.04,0.043,0.0465,0.0559,0.0575,0.0624,0.0624,0.0629,0.0636,0.063,0.0595,0.0609,0.049,0.0486,0.0482,0.0541,0.0539,0.0538,0,0,0,0,0,0.0103,0.0108,0.0119,0.0133,0.0261,0.0402,0.0432,0.0548,0.056,0.0631,0.0643,0.0624,0.0602,0.0635,0.0628,0.0591,0.0492,0.0487,0.0482,0.0542,0.0539,0.0538,0,0,0,0,0,0,0.0072,0.0129,0.0145,0.0171,0.0288,0.0432,0.0487,0.0556,0.0631,0.0628,0.0631,0.0632,0.0616,0.0587,0.0622,0.0531,0.0528,0.0521,0.0574,0.0572,0.0571,0.0588,0.0607,0,0,0,0,0,0.0046,0.0054,0.0157,0.0187,0.0226,0.0352,0.042,0.051,0.0582,0.0625,0.0651,0.0628,0.0584,0.0573,0.0554,0.0521,0.0497,0.0475,0.0474,0.0473,0.0476,0.0399,0.0392,0.0463,0.0463,0.0463,0,0,0.0043,0.0074,0.0083,0.0179,0.0259,0.036,0.0401,0.052,0.0599,0.0591,0.0677,0.064,0.0576,0.0555,0.0537,0.0532,0.0446,0.0467,0.0468,0.0471,0.0393,0.0387,0.0381,0.046,0.0461,0.0461,0,0,0.006,0.0062,0.0086,0.0182,0.0302,0.038,0.0413,0.0562,0.0617,0.0688,0.0663,0.0623,0.0609,0.0558,0.0515,0.0479,0.0447,0.0442,0.0448,0.0373,0.0368,0.0363,0.0368,0.0363,0.0433,0.0433,0.0433,0,0.0058,0.0103,0.0132,0.0211,0.0297,0.0383,0.0488,0.0551,0.0694,0.0694,0.0717,0.0643,0.0604,0.0512,0.0502,0.0478,0.0457,0.0474,0.0376,0.037,0.0364,0.037,0.0363,0.0436,0.0435,0.0435,0.0435,0,0.0119,0.0175,0.0207,0.0308,0.0405,0.0516,0.0603,0.0666,0.0707,0.0749,0.071,0.0667,0.0613,0.0564,0.0529,0.043,0.0441,0.0397,0.0397,0.0361,0.0369,0.0361,0.0439,0.0438,0.0437,0.0437,0,0,0.0083,0.0217,0.0236,0.0317,0.0475,0.0572,0.0637,0.0719,0.072,0.078,0.0768,0.0677,0.0636,0.0581,0.0508,0.0432,0.0383,0.0398,0.0393,0.0434,0.0275,0.0271,0.0263,0.032,0.0318,0.0316,0.0317,0,0.0141,0.0272,0.0338,0.0513,0.0605,0.0691,0.0739,0.0806,0.0815,0.0814,0.072,0.0685,0.0641,0.0598,0.0515,0.0401,0.0357,0.0391,0.0275,0.0274,0.0298,0.0249,0.0309,0.0311,0.0309,0.0308,0.0307,0,0.0197,0.0283,0.0437,0.0597,0.0639,0.0753,0.0826,0.0894,0.0856,0.0841,0.0776,0.0715,0.0611,0.0578,0.0414,0.0438,0.0371,0.0297,0.0294,0.0261,0.0252,0.0336,0.0292,0.0293,0.0295,0.0296,0.0296,0,0.0175,0.0363,0.0479,0.0558,0.0731,0.08,0.0889,0.0899,0.091,0.0868,0.0828,0.072,0.0661,0.0543,0.041,0.0406,0.024,0.0216,0.0169,0.0172,0.0157,0.0162,0.0116,0.0116,0.0116,0.0116,0.0116,0,0.0223,0.0326,0.0488,0.0574,0.07,0.0828,0.0907,0.0936,0.0937,0.0907,0.0849,0.0772,0.0639,0.0527,0.042,0.0278,0.0258,0.0171,0.0149,0.0187,0.0194,0.0155,0.016,0.0116,0.0116,0.0116,0.0116,0,0.0205,0.0299,0.0457,0.0644,0.0705,0.0812,0.0968,0.0983,0.0983,0.0939,0.0929,0.0817,0.068,0.0557,0.0372,0.0294,0.0157,0.0121,0.0227,0.0212,0.0155,0.0162,0.0078,0.0078,0.0077,0.0077,0.0076,0,0.0212,0.0283,0.0492,0.0583,0.0694,0.085,0.0919,0.1,0.0998,0.0938,0.0889,0.0785,0.0688,0.0462,0.0337,0.0187,0.0149,0.0118,0.0084,0.0153,0.014,0.0148,0.0156,0.0075,0.0075,0.0075,0.0075,0,0.0233,0.0294,0.0414,0.0577,0.0711,0.0815,0.0926,0.0928,0.096,0.095,0.0834,0.0728,0.0584,0.0443,0.0344,0.0216,0.0146,0.0112,0.0112,0.0079,0.0148,0.0138,0.0146,0.0073,0.0073,0.0074,0.0074,0,0.0238,0.0305,0.0434,0.0584,0.0702,0.0751,0.0832,0.0858,0.0873,0.0823,0.0786,0.0655,0.0609,0.0457,0.0338,0.0242,0.0208,0.0167,0.0163,0.0164,0.0172,0.0272,0.0209,0,0,0,0,0,0.0258,0.0311,0.0433,0.0579,0.0671,0.0727,0.0801,0.0856,0.0878,0.0796,0.08,0.067,0.0508,0.044,0.0342,0.0315,0.0186,0.0195,0.0135,0.0063,0.0065,0.0056,0,0,0,0,0,0,0.0272,0.0365,0.0414,0.0508,0.0589,0.0668,0.0708,0.0735,0.07,0.0719,0.0644,0.0629,0.0484,0.0558,0.033,0.0303,0.0247,0.0136,0.0134,0.0061,0.0063,0.0065,0.0057,0,0,0,0,0]}]]